{"data":{"norad_id":49753,"epoch":"2026-05-25T00:45:24.236064Z","epoch_age_seconds":72227,"freshness":"FRESH","line1":"1 49753U 21115AF  26145.03153051  .00000179  00000+0  29332-4 0  9993","line2":"2 49753  53.2125 166.4104 0001077  70.5633 289.5475 15.08834928247066","mean_motion":15.08834928,"eccentricity":0.0001077,"inclination_deg":53.2125,"raan_deg":166.4104,"arg_perigee_deg":70.5633,"mean_anomaly_deg":289.5475,"bstar":2.9332e-5,"rev_number":24706,"period_min":95.437875494356,"perigee_km":539.01383469487,"apogee_km":540.50394947002,"semimajor_km":6917.8958920824,"source":"CELESTRAK","updated_at":"2026-05-25T13:38:16.837535Z"}}